This is the latest recevied weather packets stored in our database for station/object N2XGL-1. If no packets are shown the sender has not sent any weather packets the latest 10 day(s).
| Time | Temp. | Humidity | Pressure | Rain* | Wind** | Luminosity | Snow |
|---|---|---|---|---|---|---|---|
| 1777794019 | 10.56° C | 36% | 1009.6 hPa | 0 mm | - | - | - |
| 1777793433 | 10.56° C | 36% | 1009.7 hPa | 0 mm | - | - | - |
| 1777793050 | 11.11° C | 36% | 1009.7 hPa | 0 mm | - | - | - |
| 1777792913 | 11.11° C | 36% | 1009.7 hPa | 0 mm | - | - | - |
| 1777792368 | 11.11° C | 35% | 1009.9 hPa | 0 mm | - | - | - |
| 1777791879 | 11.11° C | 35% | 1009.9 hPa | 0 mm | - | - | - |
| 1777791321 | 11.67° C | 35% | 1010 hPa | 0 mm | - | - | - |
| 1777790839 | 11.67° C | 33% | 1010.1 hPa | 0 mm | - | - | - |
| 1777790333 | 11.67° C | 33% | 1010.1 hPa | 0 mm | - | - | - |
| 1777789767 | 11.67° C | 31% | 1010.1 hPa | 0 mm | - | - | - |
| 1777789515 | 11.67° C | 31% | 1010.1 hPa | 0 mm | - | - | - |
| 1777789253 | 11.67° C | 31% | 1010.1 hPa | 0 mm | - | - | - |
| 1777788920 | 11.11° C | 32% | 1010.3 hPa | 0 mm | - | - | - |
| 1777788703 | 11.11° C | 32% | 1010.3 hPa | 0 mm | - | - | - |
| 1777788119 | 10.56° C | 33% | 1010.3 hPa | 0 mm | - | - | - |
| 1777787623 | 10.56° C | 36% | 1010.2 hPa | 0 mm | - | - | - |
| 1777787074 | 10.56° C | 35% | 1010.3 hPa | 0 mm | - | - | - |
| 1777786531 | 10.56° C | 35% | 1010.3 hPa | 0 mm | - | - | - |
| 1777785572 | 10.56° C | 28% | 1010.3 hPa | 0 mm | - | - | - |
| 1777785483 | 10.56° C | 28% | 1010.3 hPa | 0 mm | - | - | - |
| 1777784893 | 10.56° C | 28% | 1010.3 hPa | 0 mm | - | - | - |
| 1777784374 | 10.56° C | 27% | 1010.4 hPa | 0 mm | - | - | - |
| 1777784321 | 10.56° C | 27% | 1010.4 hPa | 0 mm | - | - | - |
| 1777783728 | 10.56° C | 26% | 1010.6 hPa | 0 mm | - | - | - |
| 1777783173 | 10.56° C | 27% | 1010.8 hPa | 0 mm | - | - | - |
* Rain latest hour (hover to see other rain measurements)
** Current wind speed in m/s (hover to see current wind gust speed)